TimePST,TemperatureF,Dew PointF,Humidity,Sea Level PressureIn,VisibilityMPH,Wind Direction,Wind SpeedMPH,Gust SpeedMPH,PrecipitationIn,Events,Conditions,WindDirDegrees,DateUTC
12:52 AM,44.1,21.0,40,29.94,10.0,North,8.1,-,N/A,,Clear,360,2012-12-12 08:52:00
1:52 AM,43.0,21.0,42,29.94,10.0,NNW,3.5,-,N/A,,Clear,340,2012-12-12 09:52:00
2:52 AM,43.0,21.0,42,29.93,10.0,NW,3.5,-,N/A,,Clear,320,2012-12-12 10:52:00
3:52 AM,41.0,19.9,43,29.91,10.0,Calm,Calm,-,N/A,,Clear,0,2012-12-12 11:52:00
4:52 AM,39.0,21.9,50,29.91,10.0,North,6.9,-,N/A,,Clear,350,2012-12-12 12:52:00
5:52 AM,39.9,19.0,43,29.93,10.0,North,5.8,-,N/A,,Clear,350,2012-12-12 13:52:00
6:52 AM,41.0,19.0,41,29.95,10.0,NNW,4.6,-,N/A,,Clear,330,2012-12-12 14:52:00
7:52 AM,46.0,19.9,35,29.95,10.0,Calm,Calm,-,N/A,,Clear,0,2012-12-12 15:52:00
8:52 AM,52.0,21.0,30,29.97,10.0,Calm,Calm,-,N/A,,Clear,0,2012-12-12 16:52:00
9:52 AM,55.9,21.0,26,29.97,10.0,Calm,Calm,-,N/A,,Clear,0,2012-12-12 17:52:00
10:52 AM,59.0,21.9,24,29.95,10.0,Calm,Calm,-,N/A,,Clear,0,2012-12-12 18:52:00
11:52 AM,63.0,21.0,20,29.91,10.0,Calm,Calm,-,N/A,,Clear,0,2012-12-12 19:52:00
12:52 PM,69.1,26.1,20,29.87,10.0,South,6.9,-,N/A,,Clear,170,2012-12-12 20:52:00
1:52 PM,71.1,30.9,23,29.83,10.0,SSE,9.2,-,N/A,,Clear,160,2012-12-12 21:52:00
2:52 PM,73.0,28.0,19,29.82,10.0,South,13.8,-,N/A,,Clear,180,2012-12-12 22:52:00
3:52 PM,71.1,30.0,22,29.82,10.0,South,10.4,-,N/A,,Clear,180,2012-12-12 23:52:00
4:52 PM,66.9,28.9,24,29.82,10.0,Calm,Calm,-,N/A,,Clear,0,2012-12-13 00:52:00
5:52 PM,64.0,30.9,29,29.83,10.0,SSE,4.6,-,N/A,,Clear,160,2012-12-13 01:52:00
6:52 PM,61.0,30.9,32,29.83,10.0,Calm,Calm,-,N/A,,Clear,0,2012-12-13 02:52:00
7:52 PM,62.1,30.9,31,29.83,10.0,SE,4.6,-,N/A,,Clear,140,2012-12-13 03:52:00
8:52 PM,57.0,30.9,37,29.83,10.0,SE,5.8,-,N/A,,Clear,130,2012-12-13 04:52:00
9:52 PM,55.9,32.0,40,29.84,10.0,South,6.9,-,N/A,,Clear,170,2012-12-13 05:52:00
10:52 PM,52.0,30.9,45,29.85,10.0,Calm,Calm,-,N/A,,Clear,0,2012-12-13 06:52:00
11:52 PM,52.0,32.0,47,29.84,10.0,ENE,5.8,-,N/A,,Scattered Clouds,70,2012-12-13 07:52:00